Weather Roundup
Issued by NWS

Home | Current Version | Previous Version | Graphics & Text | Print | Product List | Glossary Off
Versions: 1 2 3 4 5 6 7 8 9 10 11 12 13 14 15 16 17 18 19 20 21 22 23 24 25 26 27 28 29 30 31 32 33 34 35 36 37 38 39 40 41 42 43 44 45 46 47 48 49 50

449
NZUS93 KARX 240410
HRRWXR

CURRENT HOURLY OBSERVATIONS ACROSS
MUCH OF THE UPPER MISSISSIPPI VALLEY
NATIONAL WEATHER SERVICE LA CROSSE WI
1000 PM CST THU FEB 23 2017


...SOUTHEAST MINNESOTA...


CITY           SKY/WX    TMP DP  RH WIND       PRES   REMARKS
ROCHESTER      SNOW      31  31 100 N21G30    29.80S VSB 1/2 WCI  18
ROCHESTER/MAYO CLOUDY    32  32  99 N12G20    29.82S VSB 1   WCI  23
WINONA         RAIN      37  28  70 NE7       29.84S WCI  32
AUSTIN         LGT SNOW  32  30  93 N14G21    29.78R WCI  22
ALBERT LEA     CLOUDY    32  32 100 NE20G25   29.76F VSB 1/2 WCI  20
DODGE CENTER   LGT SNOW  30  30 100 N16       29.81F VSB 1   WCI  19
PRESTON        TSTM      32  30  94 NE18G28   29.74F WCI  20
OWATONNA       SNOW      32  30  93 N12G25    29.84R WCI  23
FARIBAULT      LGT SNOW  30  27  86 N12G20    29.87S WCI  21
$$

...ELSEWHERE IN MINNESOTA...


CITY           SKY/WX    TMP DP  RH WIND       PRES   REMARKS
MINNEAPOLIS    CLOUDY    30  22  72 N17       29.92R WCI  18
INTNL FALLS    CLEAR     15   6  67 NW7       30.03F WCI   5
DULUTH         CLEAR     21  15  78 N8        29.94S WCI  11
RED WING       CLOUDY    36  25  64 N6        29.88R WCI  31
REDWOOD FALLS  CLOUDY    31  23  72 NE8       29.94R WCI  23
MANKATO        LGT SNOW  28  27  93 NE18      29.86F VSB 3/4 WCI  16
WORTHINGTON    SNOW      27  25  92 NE25G33   29.80S VSB 1/2 WCI  12
FAIRMONT       LGT SNOW  28  27  93 N18       29.82R VSB 3/4 WCI  16
$$

...SOUTHWEST WISCONSIN...


CITY           SKY/WX    TMP DP  RH WIND       PRES   REMARKS
LA CROSSE      LGT RAIN  40  29  64 NE13G18   29.80R WCI  32
PRAIRIE DU CHI MIX PCPN  33  32  96 NE9       29.73F WCI  26
BOSCOBEL       LGT SNOW  35  32  88 NE8G21    29.77F FOG     WCI  29
LONE ROCK      LGT SNOW  35  31  85 NE13G20   29.75F FOG     WCI  26
PLATTEVILLE    CLOUDY    36  35  99 NE18      29.71R WCI  25
FORT MC COY    CLOUDY    40  28  61 NE13      29.84R WCI  32
CAMP DOUGLAS   CLOUDY    38  29  68 E13G18    29.81F WCI  31
MAUSTON-NEW LI DRIZZLE   38  31  76 E9G18     29.81R WCI  31
VIROQUA        CLOUDY    34  33  93 NE17G23   29.77F WCI  24
WIS DELLS      LGT SNOW  32  32  99 NE16      29.77F WCI  21
$$

...ELSEWHERE IN WISCONSIN...


CITY           SKY/WX    TMP DP  RH WIND       PRES   REMARKS
MILWAUKEE      LGT RAIN  37  33  85 NE15G29   29.77F WCI  28
MADISON        LGTSLEET  32  31  96 NE16G30   29.77F FOG     WCI  21
GREEN BAY      CLOUDY    35  28  75 NE13      29.92R WCI  26
EAU CLAIRE     CLOUDY    33  27  78 NE10      29.87R WCI  25
BLACK RVR FLS  CLOUDY    40  24  53 NE7       29.84R WCI  35
MEDFORD        CLOUDY    31  25  78 NE12G20   29.84F WCI  21
WAUSAU         CLOUDY    34  26  72 E10       29.84F WCI  26
WIS RAPIDS     CLOUDY    38  28  67 E15G23    29.84F WCI  29
MARSHFIELD     FLURRIES  34  27  75 NE9       29.83F WCI  27
RICE LAKE      CLOUDY    29  24  80 N12       29.93R WCI  20
$$

...NORTHEAST IOWA...


CITY           SKY/WX    TMP DP  RH WIND       PRES   REMARKS
WATERLOO       CLOUDY    37  34  89 NE21      29.62F WCI  26
DUBUQUE        CLOUDY    36  34  92 NE25G31   29.66F FOG     WCI  24
DECORAH        LGT SNOW  34  32  93 NE20G26   29.68F WCI  22
MASON CITY     TSTM      32  32 100 NE25G36   29.72F VSB 1/2 WCI  19
CHARLES CITY   MIX PCPN  34  34 100 NE24G37   29.63F WCI  21
OELWEIN        LGT RAIN  36  36 100 NE20G35   29.67R WCI  25
$$

...ELSEWHERE IN IOWA...


CITY           SKY/WX    TMP DP  RH WIND       PRES   REMARKS
DES MOINES     DRIZZLE   42  40  92 NE16G23   29.57F FOG
IOWA CITY      CLOUDY    41  36  82 NE16G32   29.62F
FORT DODGE     CLOUDY    34  28  80 NE22      29.67F WCI  22
MARSHALLTOWN   CLOUDY    38  38 100 E21G31    29.60R FOG     WCI  28
CEDAR RAPIDS   LGT RAIN  39  39 100 E23       29.59F WCI  28
$$

...NORTHERN ILLINOIS...


CITY           SKY/WX    TMP DP  RH WIND       PRES   REMARKS
CHICAGO-OHARE  CLOUDY    39  36  89 NE16      29.72F WCI  30
CHICAGO-MIDWAY LGT RAIN  40  37  89 N12       29.73S WCI  33
MOLINE         CLOUDY    42  36  79 NE20G28   29.61F
ROCKFORD       CLOUDY    37  34  89 NE15      29.73S WCI  28
PEORIA         CLOUDY    44  42  93 E21       29.60F
$$

NOTE: "FAIR" INDICATES FEW OR NO CLOUDS BELOW 12,000 FEET WITH NO
SIGNIFICANT WEATHER AND/OR OBSTRUCTIONS TO VISIBILITY. WIND
SPEEDS ARE IN MILES-PER-HOUR.




USA.gov is the U.S. government's official web portal to all federal, state and local government web resources and services.